{"data":{"norad_id":67609,"epoch":"2026-05-25T03:14:44.622816Z","epoch_age_seconds":63429,"freshness":"FRESH","line1":"1 67609U 26018W   26145.13523869  .00006979  00000+0  21824-3 0  9990","line2":"2 67609  97.2845 210.3246 0000334  98.0465 262.0816 15.33454320 19055","mean_motion":15.3345432,"eccentricity":3.34e-5,"inclination_deg":97.2845,"raan_deg":210.3246,"arg_perigee_deg":98.0465,"mean_anomaly_deg":262.0816,"bstar":0.00021824,"rev_number":1905,"period_min":93.90563391546,"perigee_km":465.2868668641,"apogee_km":465.74402284741,"semimajor_km":6843.6524448558,"source":"CELESTRAK","updated_at":"2026-05-25T13:38:21.647630Z"}}